Wind_Speed
8 9 9 10 11 11 12 13 13 14 14 15 15 15 15 16 17 18 19 20 20 20 19 19 19 18 15 13 10 9 8 9 9 9 9 8 6 5 4 4 4 4 5
7 9 9 10 10 11 11 12 12 12 13 13 13 12 13 14 15 16 18 19 19 19 18 18 18 17 16 14 11 9 7 7 7 8 7 7 6 5 4 3 3 3 3
8 9 9 10 10 10 11 11 11 11 12 12 11 11 11 11 12 14 16 17 17 17 16 15 15 15 15 14 12 9 7 7 6 6 6 6 5 5 4 3 3 3 3
7 8 8 9 10 10 11 11 11 11 11 12 11 10 10 10 11 12 14 15 15 15 14 13 12 12 13 13 13 11 8 7 6 6 6 5 5 4 4 3 3 2 2
7 7 8 8 9 10 10 10 10 11 11 11 11 10 9 10 10 11 12 13 13 13 12 11 10 9 10 11 11 11 10 9 7 7 6 5 5 5 4 3 3 3 2
8 8 8 9 9 9 10 9 10 10 10 10 10 10 10 10 10 11 11 12 12 12 11 10 8 7 7 7 8 9 9 9 9 8 7 6 6 5 5 4 4 4 4
10 10 10 10 10 10 9 9 9 9 10 10 10 10 10 10 10 10 10 11 11 11 11 10 8 7 6 5 5 6 7 7 8 9 8 7 6 6 6 5 5 5 5
11 11 11 11 11 10 10 9 9 9 10 10 11 10 10 10 10 10 10 10 10 10 10 10 9 8 7 7 6 5 5 5 6 7 7 7 7 7 6 6 6 5 5
11 11 12 12 12 11 11 10 10 10 10 11 11 11 11 10 10 10 9 9 10 10 10 10 10 10 9 9 8 8 7 6 6 6 6 6 6 7 7 6 6 6 6
11 11 12 12 12 12 12 12 12 12 12 12 12 12 12 12 11 11 10 10 10 10 11 11 11 11 11 11 11 10 10 10 9 8 8 7 7 7 7 6 6 6 7
12 12 12 12 13 14 15 15 15 15 15 15 14 14 14 14 14 14 13 13 13 13 13 13 13 13 13 13 13 13 13 13 13 12 12 11 10 9 9 8 8 7 8
15 15 16 16 17 17 18 18 18 18 18 18 18 17 17 17 17 17 17 17 17 17 17 17 17 16 16 16 16 16 16 16 16 16 15 15 14 14 13 12 12 11 10
19 19 20 20 21 22 22 23 23 23 22 22 22 21 21 21 21 21 22 22 22 22 22 22 21 21 20 20 19 19 19 19 19 19 19 19 19 18 17 17 16 16 15
21 22 22 23 25 25 26 27 28 28 28 28 27 26 26 25 25 26 26 26 27 27 27 27 27 26 25 24 23 23 23 23 23 22 22 22 23 22 21 21 20 20 19
22 23 25 27 28 29 30 30 31 32 33 34 33 31 31 30 30 30 30 30 31 31 31 32 32 31 30 29 28 28 28 28 27 26 25 25 26 26 26 25 24 23 23
24 25 27 28 29 30 31 32 31 33 34 35 36 36 36 35 34 34 34 34 34 35 36 36 36 36 35 34 33 32 32 31 30 29 28 28 28 28 28 28 28 28 28
26 27 27 28 29 29 31 31 31 33 35 34 36 38 38 38 38 38 38 37 38 39 39 40 40 41 41 39 38 37 36 35 34 32 31 30 31 31 31 31 31 31 31
27 28 28 28 28 30 31 30 31 33 34 34 35 37 38 39 40 40 41 41 42 42 42 43 44 44 44 43 43 42 40 37 36 36 34 33 33 33 33 33 33 33 34
29 29 29 29 29 31 31 31 31 33 34 34 35 37 39 41 41 41 42 42 42 42 43 43 45 44 44 43 42 41 41 41 38 37 36 36 35 35 35 34 35 34 35
30 30 30 30 30 31 31 32 33 34 35 34 35 36 36 37 39 40 41 41 42 43 43 44 43 44 42 40 39 37 36 37 36 35 37 37 37 36 35 35 35 35 36
30 30 31 32 31 31 32 32 33 33 34 34 35 36 37 37 39 40 41 42 43 43 43 44 44 43 42 41 39 37 35 35 33 34 35 36 36 35 36 36 36 35 35
30 31 32 32 33 33 33 34 34 34 34 35 35 36 37 37 38 40 41 42 42 42 42 43 43 43 42 41 39 36 33 32 30 30 32 34 35 35 34 34 34 34 34
29 30 32 33 34 34 35 36 36 36 35 35 35 36 37 38 38 39 40 40 41 41 40 40 40 40 38 36 35 34 31 28 28 28 30 31 32 33 32 32 32 32 32
29 31 32 33 33 34 34 33 33 34 34 35 35 36 37 38 38 38 39 39 40 40 39 37 36 35 34 32 32 32 31 29 28 28 29 31 31 31 31 31 31 31 31
29 31 31 31 31 30 29 29 29 30 32 34 35 36 37 38 38 38 39 39 39 39 38 37 36 35 33 32 32 33 33 32 31 30 30 31 32 32 30 31 31 32 30
29 30 30 30 29 27 27 28 28 30 32 33 34 35 37 37 38 38 39 39 40 40 40 40 39 38 37 36 35 35 35 35 34 33 33 34 34 33 32 32 31 31 30
Wind_Direction
62 51 40 33 31 33 36 41 44 45 45 45 45 45 43 40 38 36 33 30 30 31 33 35 37 38 39 38 39 41 41 42 44 47 50 54 59 70 85 100 106 105 104
51 39 29 23 22 24 27 31 35 37 37 38 39 39 37 33 31 29 27 24 23 24 27 30 33 35 37 37 35 34 34 34 37 40 44 48 54 65 79 99 123 131 128
41 30 21 17 17 18 21 22 23 24 25 26 27 27 25 23 21 21 19 18 18 18 20 24 28 32 35 37 36 34 31 28 28 31 35 39 43 53 67 80 102 124 130
32 22 14 11 12 12 13 12 11 11 13 13 13 12 10 9 9 9 10 11 12 13 14 17 22 28 32 35 37 36 33 28 25 25 26 26 27 32 39 50 60 81 100
12 3 358 359 2 3 4 3 2 2 2 2 2 359 356 354 355 357 1 4 6 7 7 9 12 19 25 30 34 35 35 32 25 25 26 20 12 9 10 11 12 15 23
350 341 339 340 344 348 352 353 352 351 351 350 349 347 345 344 345 348 353 357 360 0 360 359 359 2 10 18 26 29 30 32 29 27 27 24 12 2 355 350 344 340 344
332 327 326 327 330 332 335 338 340 340 339 337 337 337 337 336 338 340 345 349 351 352 351 350 346 342 342 347 360 11 17 21 22 24 26 24 15 4 354 347 340 330 323
328 325 325 325 324 324 323 324 326 327 327 326 326 327 328 328 329 331 335 339 341 343 342 341 338 330 322 318 320 329 342 353 2 9 15 18 13 4 355 340 333 324 315
328 328 329 326 322 319 317 314 313 313 312 312 313 315 315 316 317 319 323 327 330 331 331 330 327 322 314 306 302 301 303 308 315 327 339 350 355 355 351 345 332 319 313
325 325 326 324 320 317 313 310 307 305 304 303 303 304 304 303 304 306 308 311 313 312 313 313 312 310 308 303 296 292 290 290 291 293 298 306 317 326 331 331 326 317 313
314 315 316 314 312 310 308 304 302 301 300 298 296 295 295 294 294 294 295 297 298 297 297 298 298 297 297 297 295 291 287 284 283 281 282 285 289 294 300 304 307 307 304
304 302 301 300 300 299 298 296 294 294 294 293 291 289 288 286 286 286 287 288 288 287 287 287 287 288 288 288 288 287 284 281 278 277 276 277 278 279 282 285 289 291 292
300 298 295 293 292 291 290 289 288 286 285 285 284 283 281 279 279 279 280 282 282 282 281 281 281 280 280 280 280 280 279 278 276 274 274 274 273 273 273 275 278 281 281
297 295 294 293 291 289 286 285 284 282 280 277 276 275 274 273 273 274 275 277 277 278 278 278 277 276 275 274 274 274 273 273 272 272 272 272 272 271 270 270 272 273 275
294 292 291 291 290 289 287 286 284 281 279 276 272 270 269 268 269 269 270 271 273 274 274 274 274 273 271 269 268 269 269 269 269 269 270 271 272 272 271 269 269 269 269
295 293 292 292 293 292 291 291 287 284 282 277 272 269 267 265 265 265 266 267 269 270 271 271 271 269 267 266 265 265 266 267 268 268 269 270 270 271 272 271 270 269 268
298 296 295 294 294 294 295 296 292 291 287 282 274 270 269 266 264 264 265 265 266 268 269 269 269 267 266 264 263 262 262 263 263 265 266 268 269 269 270 271 271 270 269
301 300 298 296 295 295 297 299 298 297 295 292 284 277 273 269 266 265 264 265 266 269 271 272 273 272 270 269 267 265 263 262 262 262 263 266 267 268 268 270 271 271 269
300 298 298 297 297 299 301 303 303 301 300 298 291 285 280 274 269 268 268 267 267 269 272 274 275 275 275 274 272 269 266 264 262 262 261 262 264 265 267 269 271 271 270
297 298 298 298 299 302 305 306 306 305 304 300 295 290 287 282 278 276 274 272 271 272 273 275 278 278 279 278 276 273 270 268 265 263 261 261 262 264 266 268 270 271 271
295 298 299 300 303 307 310 311 310 308 305 302 298 294 290 287 283 280 278 277 276 274 275 274 278 280 280 282 279 275 272 271 269 265 263 262 264 265 266 269 269 270 271
293 297 300 304 309 312 314 314 313 311 308 305 301 297 293 289 285 281 279 278 277 276 275 276 277 279 280 281 279 276 273 272 269 270 265 265 265 267 268 268 270 270 271
292 297 302 306 311 314 315 316 316 315 312 309 305 301 295 290 285 281 279 277 277 277 277 277 277 278 279 279 278 277 276 273 273 272 270 269 268 269 270 271 272 272 272
292 297 301 305 309 311 313 315 316 317 317 315 311 306 300 294 289 284 280 278 277 277 276 276 276 277 277 277 278 279 280 277 277 275 274 273 273 273 271 271 272 272 272
292 295 299 302 304 307 310 313 317 318 318 317 315 311 305 298 292 287 282 279 276 274 274 273 273 275 276 276 276 277 278 278 279 277 275 275 275 274 274 273 272 272 270
289 291 294 296 298 301 306 312 317 319 320 319 318 316 312 305 297 290 284 279 276 274 272 271 271 273 273 274 274 274 275 276 277 275 274 273 274 273 273 273 271 271 266
Height
5916 5916 5916 5916 5915 5914 5912 5911 5911 5910 5910 5909 5909 5908 5908 5908 5907 5907 5906 5905 5904 5903 5902 5901 5899 5898 5897 5896 5895 5895 5894 5894 5893 5892 5892 5891 5891 5890 5890 5890 5890 5890 5890
5917 5917 5917 5916 5915 5914 5913 5912 5912 5911 5911 5910 5910 5909 5909 5909 5908 5908 5907 5906 5905 5903 5902 5901 5900 5899 5898 5896 5896 5895 5894 5894 5894 5893 5893 5893 5892 5892 5891 5891 5891 5891 5891
5918 5917 5917 5916 5916 5914 5913 5913 5912 5912 5911 5911 5910 5910 5909 5909 5909 5908 5907 5906 5905 5904 5903 5902 5901 5900 5899 5898 5896 5895 5894 5894 5894 5894 5894 5893 5893 5893 5892 5892 5892 5891 5891
5918 5918 5917 5916 5915 5914 5914 5913 5912 5912 5911 5911 5910 5910 5910 5909 5909 5908 5907 5906 5905 5904 5903 5902 5901 5900 5899 5898 5897 5896 5895 5894 5893 5893 5893 5893 5893 5893 5893 5892 5892 5892 5891
5918 5918 5917 5916 5915 5914 5913 5913 5912 5911 5911 5910 5910 5909 5909 5909 5908 5908 5907 5906 5905 5904 5903 5902 5901 5901 5900 5899 5897 5896 5895 5894 5893 5893 5893 5892 5892 5892 5892 5892 5892 5891 5891
5918 5918 5917 5915 5914 5913 5913 5912 5911 5911 5910 5910 5909 5909 5908 5908 5907 5907 5906 5905 5904 5903 5902 5901 5901 5900 5899 5898 5897 5896 5895 5894 5892 5892 5892 5891 5891 5891 5891 5891 5890 5890 5890
5918 5917 5916 5915 5913 5912 5912 5911 5910 5909 5909 5908 5908 5907 5907 5906 5906 5905 5904 5903 5902 5902 5901 5900 5899 5899 5898 5897 5896 5895 5894 5893 5892 5891 5890 5890 5889 5889 5889 5889 5889 5889 5889
5917 5916 5915 5914 5913 5912 5911 5910 5909 5908 5908 5907 5907 5906 5905 5905 5904 5903 5903 5902 5901 5900 5899 5898 5898 5897 5896 5895 5895 5894 5893 5892 5891 5890 5889 5888 5888 5887 5887 5887 5887 5887 5888
5916 5915 5914 5913 5912 5911 5910 5909 5908 5907 5906 5906 5905 5904 5904 5903 5902 5902 5901 5900 5900 5899 5898 5897 5896 5895 5894 5893 5893 5892 5891 5891 5890 5889 5888 5887 5886 5885 5885 5885 5885 5885 5885
5915 5914 5913 5912 5911 5910 5909 5908 5907 5906 5905 5904 5903 5903 5902 5901 5900 5900 5899 5898 5898 5897 5896 5895 5894 5893 5892 5891 5891 5890 5889 5888 5888 5887 5886 5885 5884 5884 5883 5883 5882 5883 5883
5913 5912 5911 5910 5909 5908 5907 5906 5905 5904 5903 5902 5901 5901 5900 5899 5898 5897 5896 5895 5895 5894 5893 5892 5891 5890 5889 5889 5888 5887 5886 5886 5885 5884 5884 5883 5882 5882 5881 5881 5880 5880 5880
5911 5910 5908 5907 5906 5905 5904 5903 5902 5901 5901 5900 5899 5898 5897 5896 5895 5894 5893 5892 5891 5890 5889 5889 5888 5887 5886 5885 5884 5884 5883 5882 5881 5881 5880 5880 5879 5879 5879 5878 5878 5878 5878
5907 5906 5904 5903 5902 5901 5900 5899 5898 5897 5896 5895 5895 5894 5893 5891 5890 5889 5888 5888 5887 5886 5885 5884 5883 5882 5882 5881 5880 5879 5878 5878 5877 5876 5876 5876 5875 5875 5875 5875 5875 5875 5875
5903 5901 5900 5898 5897 5896 5895 5894 5893 5892 5891 5890 5889 5888 5887 5886 5885 5884 5883 5882 5881 5880 5879 5878 5878 5877 5876 5876 5875 5874 5873 5872 5872 5871 5871 5871 5871 5870 5870 5871 5871 5871 5871
5899 5897 5895 5893 5891 5890 5888 5887 5887 5886 5885 5884 5882 5881 5880 5879 5878 5877 5877 5876 5874 5873 5872 5871 5871 5870 5869 5869 5868 5867 5866 5866 5866 5865 5865 5865 5865 5865 5865 5865 5865 5866 5866
5894 5892 5889 5887 5885 5883 5882 5880 5879 5878 5877 5876 5875 5873 5872 5871 5870 5869 5869 5868 5867 5865 5864 5863 5862 5861 5860 5859 5859 5859 5859 5859 5859 5858 5858 5858 5858 5858 5858 5858 5859 5859 5860
5888 5886 5884 5882 5880 5877 5876 5874 5872 5870 5868 5866 5865 5864 5863 5862 5861 5860 5859 5859 5858 5856 5855 5854 5853 5851 5850 5849 5849 5849 5850 5850 5850 5850 5850 5850 5851 5851 5851 5851 5851 5852 5853
5882 5880 5878 5876 5874 5871 5870 5868 5866 5864 5861 5858 5856 5855 5854 5852 5851 5850 5850 5849 5848 5847 5846 5845 5844 5842 5841 5841 5840 5840 5840 5841 5841 5841 5842 5842 5842 5843 5843 5843 5843 5844 5845
5876 5874 5872 5870 5867 5865 5864 5862 5859 5857 5854 5851 5849 5847 5845 5843 5841 5841 5840 5839 5838 5838 5837 5836 5835 5833 5832 5832 5831 5831 5831 5832 5832 5832 5833 5833 5834 5835 5835 5836 5836 5836 5836
5870 5868 5866 5863 5861 5860 5858 5856 5853 5850 5847 5845 5842 5840 5837 5835 5833 5832 5832 5831 5830 5829 5828 5827 5826 5824 5823 5822 5821 5821 5822 5822 5822 5823 5824 5824 5825 5826 5827 5828 5828 5827 5827
5865 5862 5860 5857 5855 5853 5851 5849 5846 5844 5841 5838 5835 5832 5830 5828 5826 5824 5823 5822 5821 5820 5819 5818 5817 5816 5815 5813 5812 5812 5812 5813 5813 5813 5814 5815 5816 5818 5818 5819 5819 5819 5818
5859 5856 5853 5851 5849 5846 5844 5841 5839 5836 5834 5830 5827 5824 5821 5819 5817 5815 5814 5812 5811 5810 5809 5809 5807 5806 5806 5804 5803 5802 5802 5804 5803 5804 5804 5805 5807 5808 5809 5809 5810 5810 5809
5853 5850 5847 5844 5842 5839 5836 5834 5831 5828 5825 5822 5819 5816 5813 5810 5808 5806 5804 5802 5801 5800 5799 5798 5797 5797 5797 5796 5794 5793 5793 5793 5794 5795 5795 5796 5797 5799 5800 5800 5800 5800 5799
5846 5844 5841 5839 5836 5833 5830 5827 5824 5820 5817 5814 5810 5807 5803 5800 5798 5796 5794 5792 5791 5789 5789 5788 5788 5787 5787 5787 5786 5785 5785 5785 5786 5787 5788 5787 5788 5790 5791 5791 5791 5791 5790
5840 5838 5835 5833 5830 5827 5825 5822 5818 5814 5810 5806 5802 5798 5794 5790 5787 5785 5783 5782 5781 5780 5779 5779 5778 5778 5778 5778 5778 5778 5777 5777 5777 5778 5779 5780 5780 5780 5781 5782 5782 5782 5782
5835 5832 5829 5827 5825 5822 5819 5816 5812 5808 5804 5799 5795 5790 5785 5780 5777 5774 5772 5771 5770 5769 5768 5768 5768 5768 5768 5768 5769 5769 5768 5768 5768 5769 5770 5771 5771 5771 5772 5772 5772 5773 5773